Home   Weather   Leer   Past weeks

Flag for Germany Past Weather in Leer, Lower Saxony, Germany — Yesterday and Last 2 Weeks

Now
34 °F

Passing clouds.


Feels Like: 27 °F
Forecast: 20 / 31 °F
Wind: 8 mph from East

Location: Wittmundhaven

Current Time: Jan 21, 2017 at 10:54:11 pm

Latest Report: Jan 21, 2017 at 10:20 pm


Visibility: N/A

Pressure: 30.42 "Hg

Humidity: 93%

Dew Point: 32 °F

Location of LeerLocation

Past Weather in Leer — Graph

°F

Leer Temperature Yesterday

Maximum temperature yesterday: 37 °F (at 2:03 pm)
Minimum temperature yesterday: 28 °F (at 12:20 am)
Average temperature yesterday: 33 °F

High & Low Weather Summary for the Past Weeks

 TemperatureHumidityPressure
High46 °F (Jan 11, 1:20 pm)100% (Jan 7, 5:20 am)30.72 "Hg (Jan 7, 5:20 am)
Low19 °F (Jan 17, 12:20 am)61% (Jan 13, 1:20 pm)29.12 "Hg (Jan 13, 2:20 am)
Average34 °F90%30.11 "Hg
* Reported Jan 6 9:20 pm — Jan 21 9:20 pm, Leer, Weather by CustomWeather, © 2017

Note: Actual official high and low records may vary slightly from our data, if they occured in-between our weather recording intervals... More about our weather records

Advertising

Leer Weather History for the Previous 24 Hours

Scroll right to see more
 ConditionsComfort  
Time TempWeatherWind HumidityBarometerVisibility
9:20 pm
Sat, Jan 21
36 °FPassing clouds.7 mph87%30.42 "HgN/A
8:20 pm37 °FPassing clouds.6 mph87%30.42 "HgN/A
7:20 pm36 °FPassing clouds.5 mph93%30.42 "HgN/A
6:20 pm36 °FPassing clouds.3 mph93%30.42 "Hg6 mi
5:59 pm36 °FPassing clouds.5 mph93%30.42 "Hg5 mi
5:20 pm36 °FPassing clouds.5 mph100%30.45 "Hg4 mi
4:20 pm37 °FPartly sunny.3 mph93%30.42 "Hg4 mi
3:20 pm37 °FFog.1 mph93%30.45 "Hg2 mi
2:20 pm37 °FFog.2 mph93%30.45 "Hg2 mi
1:20 pm37 °FFog.2 mph93%30.48 "Hg2 mi
12:20 pm37 °FFog.2 mph93%30.48 "Hg2 mi
11:20 am36 °FFog.2 mph100%30.51 "Hg2 mi
10:20 am36 °FFog.2 mph100%30.51 "Hg2 mi
9:20 am34 °FFog.1 mph100%30.51 "Hg2 mi
8:42 am34 °FFog.1 mph100%30.48 "Hg2 mi
8:20 am34 °FFog.1 mph100%30.48 "Hg1 mi
7:39 am34 °FFog.2 mph100%30.48 "Hg2 mi
7:20 am34 °FFog.1 mph100%30.48 "Hg3 mi
6:20 am34 °FFog.1 mph100%30.51 "Hg3 mi
5:20 am34 °FFog.1 mph100%30.51 "Hg1 mi
4:47 am34 °FFog.1 mph100%30.51 "Hg1 mi
4:20 am34 °FFog.2 mph100%30.51 "Hg2 mi
3:20 am34 °FFog.1 mph100%30.51 "Hg1 mi
2:20 am34 °FFog.3 mph100%30.54 "Hg0 mi
1:20 am34 °FFog.1 mph100%30.54 "Hg0 mi
12:20 am34 °FFog.No wind100%30.54 "Hg1 mi
11:20 pm
Fri, Jan 20
34 °FFog.1 mph100%30.54 "Hg1 mi
10:20 pm34 °FFog.1 mph100%30.54 "Hg1 mi
Weather by CustomWeather, © 2017

See weather overviewHow to use our weather pages